#timestamp,LO_Frequency,Hit,StdDev 
1639976415.7,286046998.9,N
1639976435.5,286046996.7,N
1639976455.4,286046998.1,N
1639976475.2,286046998.3,N
1639976495.1,286046998.2,N
1639976496.0,286046998.2,N
1639976515.8,286047001.0,N
1639976535.6,286046998.1,N
1639976555.5,286046998.8,N
1639976575.3,286046998.3,N
1639976595.2,286047000.8,N
1639976615.9,286047000.0,N
1639976635.3,286047000.1,N
1639976655.1,286047001.0,N
1639976675.9,286046998.1,N
1639976695.7,286046998.4,N
1639976715.5,286046998.7,N
1639976735.4,286046997.4,N
1639976755.2,286046997.9,N
1639976775.0,286046995.9,Y
1639976776.0,286046995.9,P
1639976795.8,286046997.6,N
1639976815.6,286046997.7,N
1639976835.5,286046994.9,Y
1639976855.3,286046999.0,P
1639976875.1,286047002.3,N
1639976895.9,286047002.4,N
1639976915.7,286047002.2,N
1639976935.6,286047000.7,N
1639976955.4,286047000.4,N
1639976975.2,286047000.3,N
1639976995.1,286047000.0,N
1639976996.0,286047000.0,N
1639977015.8,286047000.0,N
1639977035.7,286047002.1,N
1639977055.5,286047001.4,N
1639977075.3,286047001.8,N
1639977095.2,286047001.6,N
1639977115.0,286047001.4,N
1639977115.9,286047001.4,N
1639977135.7,286047003.5,N
1639977155.6,286047003.0,N
1639977175.4,286047003.1,N
1639977195.3,286047005.2,Y
1639977215.1,286047003.3,P
1639977216.0,286047003.3,P
1639977235.8,286047006.0,P
1639977255.7,286047004.3,N
1639977275.5,286047003.8,N
1639977295.3,286047003.1,N
1639977315.2,286047003.8,N
1639977335.0,286047003.1,N
1639977335.9,286047003.1,N
1639977355.8,286047003.1,N
1639977375.6,286047003.1,N
1639977395.4,286047005.4,Y
1639977415.3,286046999.7,P
1639977435.1,286047000.3,N
1639977455.9,286047002.7,N
1639977475.7,286047002.3,N
1639977495.5,286047001.9,N
1639977515.4,286047002.2,N
1639977535.2,286047002.8,N
1639977555.0,286047002.6,N
1639977555.9,286047002.6,N
1639977575.8,286047001.9,N
1639977595.6,286047002.6,N
1639977615.5,286047002.1,N
1639977635.3,286047002.3,N
1639977655.1,286047002.0,N
1639977675.9,286047001.8,N
1639977695.7,286046999.9,N
1639977715.5,286047000.5,N
1639977735.4,286046999.7,N
1639977755.2,286046999.8,N
1639977775.0,286047002.0,N
1639977776.0,286047002.0,N
1639977795.8,286047001.9,N
1639977815.6,286047001.8,N
1639977835.5,286047002.5,N
1639977855.3,286047002.6,N
1639977875.1,286047002.1,N
1639977895.9,286047002.2,N
1639977915.7,286047002.6,N
1639977935.6,286047002.6,N
1639977955.4,286047000.1,N
1639977975.8,286047001.9,N
1639977995.6,286047002.0,N
1639978015.5,286047002.5,N
1639978035.3,286047002.8,Y
1639978055.2,286046998.6,P
1639978075.9,286046999.5,N
1639978095.7,286046997.3,N
1639978115.6,286046999.5,N
1639978135.4,286046997.1,N
1639978155.3,286046996.6,N
1639978175.1,286046996.9,N
1639978176.0,286046996.9,N
1639978195.8,286046998.9,N
1639978215.7,286047000.8,N
1639978235.6,286047001.1,N
1639978255.4,286047000.7,N
1639978275.2,286047000.7,N
1639978295.1,286047000.4,N
1639978296.0,286047000.4,N
1639978315.8,286047000.6,N
1639978335.7,286047000.0,N
1639978355.5,286047002.3,N
1639978375.3,286047000.5,N
1639978395.2,286047000.8,N
1639978415.9,286047000.7,N
1639978435.7,286047000.2,N
1639978455.6,286047002.3,N
1639978475.4,286047001.4,N
1639978495.2,286047004.0,N
1639978515.1,286047001.5,N
1639978516.0,286047001.5,N
1639978535.8,286047001.6,N
1639978555.7,286047004.4,N
1639978575.5,286047001.8,N
1639978595.4,286047000.7,N
1639978615.2,286047000.8,N
1639978635.0,286047000.7,N
1639978635.9,286047000.7,N
1639978655.8,286047000.9,N
1639978675.6,286047001.1,N
1639978695.4,286047000.6,N
1639978715.3,286047000.1,N
1639978735.1,286047000.1,N
1639978755.9,286047000.4,N
1639978775.7,286047000.0,N
1639978795.5,286047001.2,N
1639978815.4,286046998.1,N
1639978835.2,286047000.8,N
1639978855.0,286047000.4,N
1639978856.0,286047000.4,N
1639978875.8,286047002.3,N
1639978895.6,286047002.8,N
1639978915.5,286047001.0,N
1639978935.3,286047000.6,N
1639978955.1,286047000.6,N
1639978975.9,286046999.7,N
1639978995.7,286047000.3,N
1639979015.5,286047002.7,N
1639979035.4,286047000.7,N
1639979055.2,286047000.3,N
1639979075.1,286047000.3,N
1639979076.0,286047000.3,N
1639979095.8,286046998.5,N
1639979115.6,286047001.1,N
1639979135.5,286047000.2,N
1639979155.3,286047000.7,N
1639979175.2,286047000.6,N
1639979195.9,286047000.0,N
1639979215.7,286047000.1,N
1639979235.6,286047000.8,N
1639979255.4,286047000.3,N
1639979275.2,286047001.1,N
1639979295.1,286047000.3,N
1639979296.0,286047000.3,N
1639979315.8,286046999.9,N
1639979335.7,286046999.8,N
1639979355.5,286047002.7,N
1639979375.3,286047000.0,N
1639979395.2,286046998.1,N
1639979415.0,286046998.2,N
1639979415.9,286046998.2,N
1639979435.7,286046999.0,N
1639979455.6,286046999.3,N
1639979475.4,286046998.6,N
1639979495.3,286047001.2,N
1639979515.1,286046999.9,N
1639979516.0,286046999.9,N
1639979535.8,286046999.7,N
1639979555.7,286047002.4,N
1639979575.5,286047002.7,N
1639979595.3,286047002.7,N
1639979615.2,286047000.5,N
1639979635.0,286047000.0,N
1639979635.9,286047000.0,N
1639979655.8,286047000.9,N
1639979675.6,286047000.7,N
1639979695.4,286047000.5,N
1639979715.3,286047000.5,N
1639979735.1,286047002.8,N
1639979755.9,286046999.8,N
1639979775.7,286047000.9,N
1639979795.5,286046999.7,N
1639979815.4,286047002.0,N
1639979835.2,286047002.2,N
1639979855.0,286047002.1,N
1639979855.9,286047002.1,N
1639979875.8,286047002.0,N
1639979895.6,286047002.2,N
1639979915.5,286046999.9,N
1639979935.3,286047002.6,N
1639979955.1,286047002.2,N
1639979975.9,286047002.5,N
1639979995.7,286047002.0,N
